Find Beidou DW 33

NORAD ID: 43581 Int'l Des: 2018-062 Owner: CNSA Country: CN Constellation: BeiDou operational
MEOCIRCULAR

リアルタイム位置

3D地球を読み込み中...

Beidou DW 33について

説明を読み込み中...

次回通過

Passes for default location (London). Set your location on the main map for personalized predictions.

高度履歴

Loading altitude history...

軌道要素

1 43581U 18062A 26126.22462587 .00000031 00000-0 00000+0 0 9994
2 43581 54.0836 183.7310 0004634 289.0991 70.9334 1.86228874 52859
Epoch: May 6, 2026 • Age: 25 hours

現在のステータス

高度 21525.4 km
速度 3.78 km/s
衛星直下点 -25.04°S, 151.73°W
打ち上げ日 Jul 29, 2018
運用期間 7.7 years
タイプ navigation

打ち上げグループ

Unknown Vehicle • BeiDou Launch 30 • 2 satellites

技術仕様

分類 Payload
質量 1014.00 kg
乾燥質量 850.00 kg
総質量 1014.00 kg
長さ 2.20 m
直径 1.70 m
スパン 10.00 m
形状 Box + 2 Pan
製造者 CAST
バスタイプ BD-3M
フェーズステータス In Orbit
所有者/国 CNSA/CN

Most Searched